Wind_Speed
12 12 12 13 13 14 14 15 15 16 16 15 15 16 16 16 17 17 17 17 17 17 17 18 18 19 19 19 20 22 25 23 19 15 11 10 9 7 9 10 11 10 9 10 10 10 8 9 8 8 8 7 7 7 9 8 7 7 8 11 11 12 12 11 11 9 6 5 5 6 8 7 6 8 4 5 6 4 5 5 4 3 2 1 3 10 17 20
13 12 12 12 13 13 14 14 15 15 16 16 15 16 16 16 17 17 17 17 17 17 17 18 18 19 19 20 22 24 24 20 19 16 10 5 2 4 8 9 9 8 8 10 10 11 9 9 9 10 9 8 7 8 10 9 9 10 9 11 12 12 12 12 12 10 7 6 5 6 7 7 5 7 6 6 6 6 6 6 7 6 5 5 8 13 17 19
14 13 13 13 13 13 14 14 14 15 15 16 16 16 16 16 16 17 17 17 17 17 17 18 19 19 18 20 23 24 21 20 17 8 3 4 3 7 11 12 9 8 9 12 11 12 11 8 8 11 10 9 8 10 11 10 10 11 11 12 13 14 15 13 13 12 9 7 8 8 6 7 5 6 6 7 7 8 8 5 6 7 8 9 11 15 17 18
14 14 13 13 13 13 14 14 15 15 15 15 16 16 16 16 16 17 17 17 18 18 17 17 19 18 17 20 23 22 19 16 7 5 6 3 0 8 12 14 10 7 10 14 12 12 12 9 8 12 11 10 10 10 12 12 10 11 13 14 13 15 16 13 13 13 10 9 10 9 7 8 6 6 7 7 7 9 8 6 4 5 7 11 12 15 17 17
14 14 14 13 13 13 14 15 15 15 15 15 15 15 16 16 16 17 17 17 17 17 17 17 18 18 18 19 20 19 15 8 3 6 3 4 1 9 14 15 11 7 8 13 12 11 12 12 10 11 11 10 11 11 13 15 12 11 15 17 16 17 16 14 14 13 12 11 12 11 9 8 6 7 9 10 10 6 3 3 4 5 5 12 14 15 16 16
14 14 14 13 13 14 14 15 15 16 16 16 16 16 16 16 16 17 17 17 17 17 17 16 17 17 18 19 17 14 10 4 4 3 3 3 3 11 14 15 13 7 7 11 12 12 13 14 13 12 11 12 15 14 14 16 14 12 14 16 19 19 15 14 14 14 14 13 14 13 10 9 9 10 9 12 12 3 3 0 4 5 4 11 14 15 15 16
15 15 15 14 14 14 15 15 15 16 16 16 16 16 16 16 16 17 16 17 16 16 16 16 17 17 18 18 13 8 8 7 3 2 6 6 9 14 15 14 11 7 5 11 13 13 13 15 15 13 13 13 16 17 16 17 17 16 15 16 19 19 17 15 14 13 15 16 15 12 10 11 13 11 8 11 11 3 2 2 5 5 6 11 13 14 15 16
15 15 15 15 14 15 15 15 15 16 16 16 17 17 17 17 17 17 16 16 16 15 15 16 15 16 17 15 10 7 7 6 4 3 7 10 12 16 16 11 7 6 5 11 13 14 14 17 18 14 14 15 15 17 17 16 16 18 18 17 16 17 17 16 15 14 16 14 12 11 12 14 15 10 8 12 10 6 4 5 6 6 8 11 13 14 14 14
15 15 15 15 15 15 15 15 15 16 16 17 17 17 17 17 17 18 17 16 15 15 15 15 14 14 15 12 9 7 3 3 4 4 5 9 15 17 15 9 6 6 6 10 12 15 15 15 18 16 13 15 15 16 17 15 13 16 19 17 14 15 17 17 16 16 15 12 10 13 15 15 13 8 10 12 8 6 6 7 8 8 10 11 12 13 13 12
16 15 15 16 15 15 16 16 16 16 17 17 18 18 18 17 18 18 18 17 15 15 14 13 13 12 12 10 8 6 2 2 2 4 10 15 18 16 11 8 6 7 8 9 12 16 15 13 17 14 9 11 13 14 17 16 11 11 19 19 14 14 15 16 18 16 14 12 12 15 16 15 12 9 10 9 8 7 8 9 9 10 11 11 11 12 12 11
16 16 16 16 16 16 17 17 17 17 17 18 18 18 18 18 18 18 18 18 16 15 14 12 12 11 11 8 7 6 2 2 4 10 17 17 15 13 10 8 7 7 9 9 12 16 16 14 13 10 6 7 11 13 15 17 11 8 15 18 14 13 13 16 18 17 13 11 13 15 15 15 14 14 14 9 10 10 11 11 11 11 11 11 12 11 11 10
16 16 16 16 16 16 16 17 17 18 18 18 18 18 18 18 18 17 18 18 17 15 13 13 11 9 11 9 10 12 9 9 13 17 18 14 12 10 9 9 8 9 9 10 11 15 16 12 11 13 8 6 11 11 12 16 11 7 12 15 15 12 13 17 18 17 15 11 13 13 13 15 15 16 16 11 11 10 11 11 12 11 10 10 11 11 10 10
16 16 16 16 16 16 16 17 17 17 17 18 19 19 19 19 19 18 18 18 17 15 13 12 10 9 10 8 10 16 17 18 18 17 15 10 9 9 8 7 8 10 10 11 10 12 17 11 11 15 9 7 10 5 5 14 12 9 12 12 13 12 14 19 18 17 18 13 13 12 11 15 17 19 17 13 14 13 12 12 11 10 9 9 10 10 10 10
17 17 17 17 17 17 17 17 17 17 17 18 19 20 21 21 21 21 20 19 17 14 13 10 9 9 9 9 11 16 17 16 15 13 10 7 7 8 5 4 5 8 10 11 11 10 14 11 10 12 9 9 7 5 6 12 12 10 12 11 11 11 13 19 19 19 19 13 15 15 13 14 17 20 19 16 16 16 14 13 12 10 9 9 10 10 10 9
18 18 18 17 18 19 19 18 17 17 18 18 19 21 22 22 22 22 19 17 15 12 10 9 8 8 9 11 12 12 11 10 10 8 6 5 6 7 4 4 5 7 9 10 10 9 12 11 9 9 10 9 6 8 10 9 10 11 11 11 12 12 13 19 22 22 21 14 17 18 13 14 17 14 17 16 16 16 15 14 13 12 11 10 10 10 9 9
19 19 18 18 18 20 20 19 17 17 18 18 20 23 22 22 22 19 15 13 9 8 7 7 8 7 9 7 2 6 8 6 5 4 4 4 7 9 8 9 8 8 9 9 8 9 12 11 10 10 11 11 9 11 11 8 10 12 12 13 15 16 13 15 20 24 24 16 18 21 14 12 13 10 16 16 16 16 15 15 15 14 13 11 9 9 8 8
19 20 19 19 19 20 21 19 17 17 17 18 21 23 22 21 16 10 7 4 1 6 7 6 5 7 8 5 3 6 5 4 4 5 6 7 8 11 9 8 8 9 10 9 9 10 13 11 9 9 10 11 12 11 11 12 12 11 14 14 16 20 16 13 15 21 25 18 18 23 19 15 11 11 15 15 16 16 15 15 16 14 12 11 9 9 9 9
20 20 19 19 19 20 20 20 19 17 17 20 21 22 20 14 7 3 4 3 4 5 6 4 4 6 6 6 6 5 2 4 8 10 13 10 6 7 7 7 7 9 11 9 10 11 12 11 9 9 10 11 13 13 13 16 17 16 16 14 15 19 19 17 13 16 24 22 18 20 19 20 14 11 15 15 15 16 15 15 14 14 12 11 10 9 10 10
21 20 20 20 19 20 20 20 19 17 19 20 20 21 14 5 3 3 2 2 2 3 3 3 7 7 6 4 7 8 8 10 11 13 16 11 5 5 6 8 8 11 12 9 11 13 11 10 11 11 12 15 19 20 19 19 20 21 19 15 14 14 15 17 13 15 23 20 18 20 18 20 18 14 15 15 15 16 15 14 12 12 12 11 10 10 10 11
22 22 22 22 21 21 20 20 18 18 20 19 18 17 8 3 4 3 4 4 7 9 11 9 9 13 14 11 12 14 14 12 12 13 12 9 6 6 6 8 9 11 12 11 12 13 11 11 12 14 17 22 25 24 23 18 13 17 18 15 17 15 12 15 13 15 21 17 16 21 19 20 20 17 16 15 15 15 15 15 13 13 12 11 12 11 11 11
22 22 23 23 24 23 22 20 18 19 19 15 13 10 5 5 7 4 4 7 11 13 16 15 15 17 17 16 16 16 13 12 13 12 10 8 6 6 6 10 12 11 13 15 12 11 12 12 15 21 22 23 23 22 21 16 11 13 15 13 15 14 11 13 13 14 19 15 13 19 20 20 20 18 16 16 16 16 16 16 15 15 13 10 11 12 11 10
23 23 23 23 24 24 23 20 19 20 16 9 8 7 5 6 6 6 6 7 11 16 18 17 17 17 17 20 19 14 11 11 13 13 12 12 10 8 8 11 13 12 14 16 12 11 12 14 20 24 21 18 18 20 20 16 12 12 12 10 11 12 10 11 13 14 16 11 11 18 18 17 18 17 16 17 16 15 15 16 15 14 13 11 11 11 11 12
23 22 22 22 21 23 23 20 20 18 10 7 9 8 5 5 5 7 7 7 10 12 14 13 12 13 14 15 11 9 11 11 13 11 11 15 13 11 11 11 15 15 15 17 15 12 11 14 21 21 17 18 19 22 22 14 11 11 10 10 10 12 12 10 12 15 14 10 10 14 13 12 14 14 15 16 15 13 13 15 13 12 13 12 12 10 10 13
24 23 22 21 21 22 21 21 19 12 7 9 10 6 4 5 6 8 7 7 9 6 6 6 6 8 7 5 2 7 9 9 10 9 9 16 13 12 12 12 15 15 15 21 21 16 12 9 14 19 19 20 19 20 22 13 9 11 11 11 10 13 15 10 11 14 12 10 8 8 8 9 12 14 13 13 13 13 13 13 13 13 13 12 11 10 11 13
25 23 22 22 21 21 22 20 12 6 8 11 7 3 4 6 7 7 6 7 6 3 5 5 4 3 2 1 3 5 8 8 10 9 8 15 14 11 11 10 11 15 19 24 21 17 14 5 9 19 18 19 18 17 20 15 9 10 11 12 10 13 16 13 13 14 9 9 11 11 9 9 13 17 16 13 13 15 13 14 15 14 14 12 11 12 12 13
24 23 23 22 22 23 20 12 5 5 10 9 4 3 5 7 7 6 5 5 4 2 4 5 4 3 2 2 3 4 7 6 7 9 10 14 14 10 10 9 8 14 20 20 14 11 12 9 10 16 17 19 18 15 19 18 11 9 11 12 9 10 14 14 15 13 8 8 13 16 12 9 11 16 18 16 15 17 15 15 16 14 13 13 11 12 13 14
25 24 24 22 21 21 14 8 8 10 9 4 2 4 6 7 6 4 4 5 3 0 2 3 3 3 2 3 4 5 4 3 4 8 12 13 13 10 10 11 10 12 14 13 10 10 14 14 13 16 18 18 16 13 17 19 13 7 11 14 13 11 13 15 14 11 9 8 11 16 15 11 10 13 17 19 17 18 18 16 16 14 13 14 13 13 14 14
25 25 24 22 21 18 13 12 12 10 8 4 2 4 5 5 4 4 5 4 1 0 1 2 2 1 4 5 8 9 7 7 6 5 12 14 13 10 11 14 13 14 15 13 11 12 16 16 14 16 16 14 14 14 16 20 14 7 11 14 14 13 13 14 12 10 10 9 9 14 16 12 10 10 14 20 19 19 21 20 17 15 15 16 16 15 14 14
26 26 25 23 21 15 11 10 11 10 8 5 4 5 4 3 4 3 4 4 1 0 0 1 3 3 5 5 9 12 9 7 5 2 9 14 13 9 8 12 14 15 17 17 13 10 10 16 14 13 12 10 14 15 16 19 15 8 12 13 11 11 11 11 10 9 10 9 10 15 17 12 10 10 11 15 19 19 18 17 16 17 18 18 16 15 15 14
27 27 26 22 17 10 5 6 10 11 8 6 6 5 4 4 4 4 4 3 1 0 1 3 2 3 6 8 8 8 8 8 5 4 8 11 12 10 7 9 11 12 14 16 16 7 4 14 15 11 10 8 12 14 15 19 16 11 13 12 10 9 8 8 8 8 9 9 14 18 19 15 11 10 12 13 15 16 15 14 16 18 19 18 16 15 16 14
28 29 25 18 10 4 2 2 3 6 6 6 5 5 4 4 3 5 4 1 2 2 0 2 1 6 9 12 8 5 7 7 7 8 9 9 12 11 7 7 8 10 11 13 15 9 6 13 13 10 10 7 10 12 14 19 18 12 11 10 10 9 7 7 6 7 8 10 14 18 19 17 13 10 12 14 15 16 15 15 18 19 19 18 16 15 15 15
30 27 19 9 4 3 3 0 2 1 3 4 4 4 4 4 4 5 3 1 2 2 2 1 2 5 10 13 12 9 8 5 7 10 11 10 10 10 10 9 9 10 11 11 13 11 8 12 13 11 11 9 10 11 12 16 16 12 12 11 10 9 8 9 9 8 10 8 7 14 19 16 13 12 12 12 15 17 16 16 18 20 20 18 17 16 15 14
29 19 9 3 2 3 5 3 2 2 2 2 4 4 4 5 5 4 5 4 2 4 3 2 6 11 11 10 10 9 8 5 8 11 12 12 10 11 13 12 12 11 9 12 14 11 8 10 15 14 10 12 13 10 11 13 15 14 14 12 11 10 9 10 10 9 11 6 3 9 14 11 11 12 14 12 12 15 17 16 17 19 19 18 17 16 15 15
21 9 5 3 2 3 5 6 5 3 1 1 3 3 4 6 5 4 5 6 5 6 8 7 10 14 11 9 8 6 7 7 9 11 12 12 9 10 11 11 14 12 8 11 12 11 10 9 13 14 10 14 15 11 12 13 14 15 14 13 11 9 9 9 9 9 11 8 7 9 10 9 8 5 8 12 12 12 14 15 15 15 15 15 15 16 16 15
11 5 4 3 1 2 3 6 7 5 2 2 3 4 4 5 4 3 3 5 6 7 11 13 12 12 8 6 6 5 4 5 10 11 9 11 9 9 10 10 13 11 8 10 9 10 13 8 12 15 11 16 17 12 13 14 12 12 12 13 11 9 8 5 3 3 5 7 8 8 7 6 3 3 1 8 12 13 13 13 14 12 11 12 13 15 15 14
7 4 3 3 3 0 3 5 7 7 5 3 4 4 4 5 4 2 2 3 5 8 12 13 7 6 6 1 3 4 4 4 8 9 7 10 9 10 11 10 12 12 9 9 8 9 11 7 13 15 10 16 17 12 13 13 10 10 11 12 12 11 9 5 2 3 0 6 7 8 9 6 3 2 6 10 13 14 14 13 14 13 12 12 12 14 14 14
7 5 2 6 7 1 3 4 7 7 4 3 4 5 5 6 5 3 2 3 7 8 9 8 3 2 5 2 3 5 6 5 7 7 6 8 8 9 12 10 12 13 8 5 6 9 10 6 12 15 11 14 15 10 12 13 9 9 11 11 11 10 9 6 6 4 5 8 6 8 12 10 7 5 8 12 14 15 15 15 14 14 13 13 12 13 14 14
7 5 1 7 8 1 3 5 8 6 3 3 6 7 6 5 6 5 5 6 8 6 5 6 1 2 3 4 3 3 6 6 7 6 6 6 5 8 12 9 10 13 8 5 5 8 10 6 9 15 13 13 13 10 10 12 11 8 9 10 9 8 8 8 7 7 9 9 6 9 12 10 9 7 8 12 15 15 16 16 15 15 14 13 13 14 15 15
6 4 0 6 5 1 5 7 7 4 2 3 6 6 5 8 9 7 7 9 8 5 5 5 2 2 3 5 4 0 5 5 6 6 5 5 4 7 12 9 10 13 9 6 5 6 9 6 7 13 14 13 11 9 9 11 10 7 7 10 9 7 8 8 7 6 8 8 7 9 10 8 9 8 8 11 13 14 16 15 16 17 15 14 14 13 14 15
4 3 1 5 2 3 7 7 5 3 3 4 6 6 7 10 10 8 9 9 6 4 3 3 3 2 3 4 4 2 2 4 7 5 5 5 5 6 11 10 10 13 10 7 5 5 7 6 4 11 15 12 9 9 10 12 11 8 9 10 10 8 7 8 9 7 7 7 7 7 8 6 6 7 8 10 11 13 14 14 14 16 17 16 14 13 14 14
3 2 2 3 1 6 8 6 4 3 4 5 7 8 9 10 10 12 10 6 6 6 5 5 5 4 4 4 2 2 2 4 6 5 4 6 5 4 9 12 12 12 10 6 5 5 5 6 5 9 12 10 9 12 14 13 13 11 9 10 10 10 8 9 10 10 8 7 6 6 8 5 4 6 9 11 10 11 13 14 15 15 17 16 12 12 13 13
4 3 3 3 2 9 7 3 3 3 4 5 7 8 11 10 9 11 9 4 5 6 5 5 5 4 4 3 3 3 4 4 6 5 4 6 6 4 9 15 14 11 9 5 5 5 2 3 6 8 9 10 10 14 16 15 15 13 10 10 10 10 10 9 8 9 9 7 5 4 6 3 4 4 8 10 9 7 6 7 9 10 11 11 11 12 12 13
3 3 2 2 4 9 4 3 3 3 4 7 10 11 11 9 7 9 8 5 4 4 3 3 4 4 2 2 4 4 4 4 5 6 5 6 7 5 9 16 16 12 9 5 5 5 1 3 7 8 9 9 8 10 13 13 13 13 11 11 11 11 12 9 7 6 8 9 7 4 5 4 4 2 3 3 4 3 2 2 3 4 5 7 10 11 12 13
3 2 1 2 4 8 3 3 4 5 7 11 14 12 9 6 7 9 7 7 5 2 3 3 3 3 2 3 5 6 4 4 5 4 3 4 5 5 7 14 16 12 9 5 5 5 4 4 6 8 9 9 7 8 11 12 12 10 11 13 13 13 14 11 8 6 7 11 12 7 6 4 4 5 3 2 3 3 2 3 5 5 6 8 10 11 12 14
4 2 2 3 6 6 3 3 4 6 9 12 13 13 11 7 6 7 8 8 6 4 4 4 3 4 4 4 6 7 7 5 4 3 3 4 4 4 5 12 15 13 10 6 5 5 4 4 5 7 9 10 10 9 9 11 11 9 11 14 14 15 17 13 8 7 7 10 13 11 7 5 5 8 8 6 5 3 3 5 5 5 7 9 10 12 13 13
3 2 1 2 5 5 4 4 4 5 7 9 9 9 11 10 8 6 6 6 2 3 5 5 5 5 4 5 5 6 7 6 5 4 3 4 4 4 5 10 14 15 10 8 7 5 3 4 5 5 5 7 9 8 7 9 11 11 14 16 15 15 16 12 9 8 8 8 10 12 10 9 9 11 11 8 6 5 5 6 6 6 7 9 10 12 12 12
2 2 3 3 1 3 3 2 3 4 6 7 5 6 9 12 11 7 3 3 2 3 3 3 4 4 3 2 4 5 4 4 6 5 3 4 4 4 5 9 14 15 9 8 10 7 3 5 6 6 6 5 5 6 7 11 15 15 16 17 15 15 16 14 11 10 9 7 8 10 12 14 13 13 12 7 4 3 4 5 6 7 8 9 10 12 13 14
2 2 2 3 3 2 2 3 5 8 10 7 3 5 8 12 13 9 5 6 3 3 3 2 3 6 6 3 2 4 4 3 4 2 3 4 4 6 6 7 11 14 10 9 10 7 5 5 4 5 7 6 4 3 5 9 13 15 17 18 17 18 18 17 14 13 11 9 7 7 11 14 14 18 18 5 3 2 1 2 5 7 9 11 12 13 14 15
3 3 1 2 3 4 6 7 8 10 10 7 3 4 8 12 13 12 8 6 7 3 4 4 4 5 6 6 4 5 4 1 1 1 2 4 4 6 7 6 8 12 12 10 9 7 6 4 2 4 6 6 6 6 6 8 10 13 16 18 18 19 20 19 16 16 14 12 10 9 10 11 14 20 18 3 5 2 2 1 5 8 10 12 13 14 15 16
3 3 3 4 5 6 6 6 7 7 6 6 5 5 9 11 12 14 11 8 10 5 3 5 5 5 5 7 6 7 6 4 3 3 4 5 4 4 6 4 5 11 13 10 8 7 6 2 2 3 5 5 5 4 6 9 11 13 14 16 18 18 19 19 17 16 15 14 14 13 10 10 11 15 13 2 3 2 2 4 7 8 11 13 13 14 16 17
5 5 5 6 5 4 4 4 5 6 4 5 6 8 10 11 13 15 13 8 8 7 5 8 7 3 7 8 8 10 11 9 9 9 8 7 5 4 3 1 2 8 13 10 7 7 6 3 2 4 5 4 2 3 6 9 11 13 15 17 18 18 16 16 14 15 14 13 14 14 11 10 10 12 12 5 1 4 5 6 7 8 11 13 14 15 16 17
8 6 5 5 5 4 4 4 4 4 3 4 7 9 10 12 13 14 11 6 5 7 8 11 11 6 4 6 8 12 13 11 11 10 10 10 9 7 6 4 4 5 9 9 7 6 6 5 3 3 3 3 0 3 3 9 10 11 13 16 18 16 15 15 14 16 16 13 12 11 9 10 11 11 11 9 5 6 6 6 6 8 11 12 13 15 16 17
Wind_Direction
356 354 352 352 353 353 356 354 351 348 346 346 344 344 345 346 346 344 344 343 342 340 338 338 338 338 337 335 327 318 319 318 311 299 279 277 288 285 282 283 284 287 290 290 274 265 255 225 214 203 213 208 214 216 192 197 199 199 220 229 231 229 227 223 214 209 201 161 156 177 195 229 186 164 180 185 203 171 163 162 137 150 170 243 98 125 139 146
356 352 349 350 350 351 353 351 350 349 346 344 341 341 343 343 343 342 342 342 340 341 339 338 336 334 336 332 323 321 321 311 299 291 269 254 347 17 350 324 292 287 280 270 253 239 232 220 201 191 209 207 202 201 191 190 197 210 220 227 230 230 229 224 216 204 196 185 188 203 210 238 212 163 182 217 205 185 200 175 165 171 150 148 139 144 149 153
355 351 347 347 348 348 348 348 348 348 346 344 342 340 339 340 341 340 339 338 337 339 338 337 336 331 332 329 323 324 319 304 292 278 194 170 82 26 359 347 312 293 271 252 246 238 233 234 204 195 209 215 206 197 199 191 195 216 222 229 229 227 233 221 210 206 201 202 218 218 202 227 222 168 190 227 220 214 233 208 189 196 170 161 155 159 159 163
354 351 349 346 345 345 345 345 345 344 344 343 342 339 337 337 337 337 336 335 334 334 335 336 334 331 332 327 325 328 315 299 287 113 109 179 84 13 357 350 330 299 267 244 243 242 234 233 213 205 211 217 211 202 208 196 193 216 221 233 229 225 234 215 207 216 209 208 230 227 197 222 218 181 204 218 219 228 239 227 232 250 181 164 163 169 170 173
353 351 350 347 345 344 343 343 342 341 341 340 340 339 337 335 334 335 334 334 333 332 334 332 333 333 329 326 327 327 308 294 92 110 121 185 274 357 353 347 340 316 262 234 230 231 224 218 210 209 214 219 208 204 214 203 200 222 224 234 233 231 233 214 213 221 213 211 230 230 217 226 201 188 213 218 231 248 239 207 245 278 195 170 170 175 179 183
351 349 348 346 344 342 342 342 341 339 339 337 337 337 335 333 332 331 330 332 331 331 332 329 333 332 324 325 325 317 294 297 77 162 197 164 306 334 345 345 346 336 248 223 218 214 210 207 204 204 209 217 212 208 213 204 204 224 225 227 234 237 232 222 222 218 212 214 221 228 228 225 214 216 217 221 239 257 67 99 259 274 214 180 176 179 185 190
348 347 345 344 342 340 340 340 340 339 338 336 334 333 332 332 331 330 328 328 329 329 330 329 331 328 323 326 319 292 267 285 335 238 239 254 303 324 332 337 344 339 238 218 215 208 204 202 203 204 205 213 214 211 212 206 204 222 228 221 226 229 226 229 230 215 212 219 222 223 220 217 229 231 206 220 236 199 134 233 251 260 206 183 182 186 192 195
344 344 342 342 340 338 338 337 338 337 335 334 331 330 328 329 328 327 324 324 326 326 327 328 329 327 325 328 320 288 265 287 329 312 269 272 305 325 325 329 335 326 254 227 223 212 207 205 206 204 208 213 212 210 209 207 206 219 231 227 222 220 221 229 229 219 215 222 224 214 214 221 233 237 215 223 220 185 204 229 229 227 191 183 190 192 196 199
342 340 339 338 337 335 334 333 333 332 331 330 327 326 323 324 323 322 321 319 321 321 324 325 324 324 322 320 310 294 296 3 4 351 335 317 317 321 319 316 309 306 269 238 232 224 214 209 209 207 220 220 212 211 201 201 210 215 225 230 224 214 216 223 223 222 218 216 211 209 220 226 225 232 235 226 202 178 210 227 217 201 188 188 195 195 198 200
343 339 336 334 334 332 331 328 328 327 326 325 323 322 319 318 317 317 317 314 315 315 317 320 320 319 315 309 293 284 316 6 352 341 331 324 319 318 312 301 296 286 266 244 230 229 224 217 215 212 239 233 211 210 198 201 217 217 219 223 225 216 212 218 220 219 218 211 206 214 224 225 214 219 233 209 180 197 213 216 204 193 194 191 197 199 200 201
342 339 336 334 332 329 328 326 324 323 321 321 319 318 315 313 312 311 312 311 310 309 309 312 313 311 302 296 277 270 302 314 315 318 313 316 314 308 301 296 288 264 261 251 228 226 229 230 225 212 228 229 208 210 207 208 218 216 212 215 219 218 211 216 221 217 216 208 203 218 228 225 213 218 233 201 172 200 210 206 198 198 200 192 199 201 200 203
339 338 336 334 332 328 327 324 322 320 319 318 315 315 313 310 308 307 308 307 305 303 302 302 303 302 293 282 255 249 265 290 302 308 307 310 302 292 292 288 269 246 253 258 237 222 225 237 236 216 205 208 203 207 210 205 209 206 200 209 209 209 216 215 218 216 212 208 196 207 230 227 213 215 228 201 165 182 199 201 199 202 203 194 200 202 203 201
337 337 335 333 332 329 327 324 322 320 319 317 314 313 310 308 306 305 304 300 297 293 291 293 291 287 283 275 255 256 269 283 292 299 298 300 293 286 285 276 256 240 241 255 254 223 218 234 244 226 215 214 202 180 186 189 198 206 197 215 213 209 222 213 213 213 211 212 186 190 232 230 217 216 210 178 158 172 190 199 202 203 203 198 199 204 205 197
335 335 334 333 332 330 327 323 321 319 318 317 314 312 309 309 311 310 304 295 288 281 277 277 274 277 270 265 274 275 276 280 279 280 282 290 295 291 269 249 252 238 230 243 254 230 216 226 245 236 226 231 209 147 177 184 191 202 197 215 218 218 223 206 206 207 207 207 182 193 237 238 234 222 192 165 163 177 191 201 205 205 201 203 202 204 204 196
335 335 334 333 333 332 329 322 318 317 317 316 313 312 312 314 315 311 306 295 282 265 259 257 252 263 271 272 278 277 273 268 259 256 267 286 301 302 276 264 271 241 225 229 240 232 214 214 230 227 211 220 217 183 189 184 187 196 197 208 213 221 224 206 202 199 199 194 182 201 234 240 246 220 171 166 175 185 203 208 208 211 205 204 203 204 203 194
336 335 333 332 331 332 332 326 318 316 316 315 313 313 316 317 313 308 307 301 276 229 219 239 238 249 276 286 280 259 254 241 248 261 259 274 298 303 294 286 270 229 215 216 223 223 209 207 219 220 206 203 206 195 187 186 193 198 206 212 209 215 225 212 199 195 197 188 186 207 228 240 238 186 162 175 182 189 208 211 209 212 208 205 204 202 201 193
336 335 332 330 330 332 334 331 323 319 316 314 313 315 319 317 309 314 334 334 212 183 201 240 245 246 256 257 269 273 257 230 270 292 280 279 288 293 292 278 248 212 200 200 205 209 200 201 210 215 212 204 201 198 194 197 195 196 207 215 213 213 220 213 195 193 196 190 193 207 225 242 227 172 170 177 179 191 204 207 208 211 208 205 204 199 200 198
337 335 333 330 329 330 333 333 329 323 318 315 316 320 323 318 302 328 17 84 124 165 201 228 231 243 239 226 251 281 308 279 282 290 288 281 271 285 282 262 243 204 191 191 196 199 193 195 203 204 205 203 200 199 203 201 196 196 200 209 216 215 217 213 195 186 192 193 199 206 220 234 222 180 176 175 180 193 200 205 208 209 210 205 202 203 203 201
338 336 334 330 327 326 328 330 331 328 322 321 323 323 319 302 253 238 194 166 181 208 245 226 198 240 296 281 258 278 294 285 280 281 277 264 244 272 263 245 241 210 198 192 190 193 189 191 202 205 202 200 200 202 207 206 204 206 203 206 215 215 218 215 199 181 187 192 202 209 217 223 217 195 182 178 184 196 201 206 209 209 211 206 204 207 204 204
335 334 333 331 329 326 325 327 329 329 325 324 326 320 302 277 283 225 192 256 270 269 277 272 231 249 283 288 276 286 293 282 272 266 259 247 230 244 240 221 222 213 207 202 186 186 192 195 202 206 204 202 202 205 210 214 222 221 212 209 213 215 215 208 195 178 184 192 204 212 220 222 219 208 190 179 184 198 204 204 207 210 211 208 206 206 205 205
331 330 330 330 328 326 327 328 327 327 326 324 323 320 319 328 319 317 319 286 273 267 265 264 256 258 269 275 280 287 292 283 269 257 243 230 206 214 218 202 208 209 207 208 189 181 198 205 209 209 208 206 203 207 213 217 229 224 212 206 206 209 203 193 185 174 183 198 210 215 224 225 222 216 198 183 186 196 202 203 207 210 210 210 208 207 206 200
330 329 329 327 324 323 326 327 325 324 323 318 315 319 326 323 310 311 309 285 276 269 263 262 259 261 265 268 273 274 274 273 267 255 228 214 205 205 201 195 208 209 201 206 196 186 201 215 214 209 209 209 204 205 209 210 213 209 202 198 200 201 194 187 185 181 186 203 218 218 224 227 223 218 201 190 193 197 200 206 209 211 211 211 211 209 203 197
327 329 329 326 322 320 321 325 326 319 309 302 307 310 311 308 298 293 285 285 290 269 258 261 258 261 265 267 267 248 247 253 262 257 207 197 204 204 205 204 211 211 202 202 202 195 201 218 217 208 207 210 205 202 201 202 208 206 202 203 206 200 194 193 189 187 190 201 227 227 227 230 221 212 204 199 201 199 199 206 212 215 217 215 214 210 200 198
326 329 328 325 323 321 320 323 319 303 287 301 303 296 297 303 301 299 292 285 287 266 244 253 258 263 269 290 271 217 237 246 259 266 196 190 197 194 208 217 210 213 209 203 204 207 208 220 216 204 203 206 203 199 198 200 206 208 213 215 212 199 198 200 181 177 186 197 219 222 221 230 214 204 206 202 202 203 198 202 210 215 219 221 216 213 208 205
329 328 326 325 323 324 323 318 307 283 298 306 297 275 295 307 307 302 300 288 277 229 187 199 217 230 210 198 197 224 263 258 250 257 212 201 200 187 202 217 214 214 209 203 204 213 212 201 200 197 194 198 198 196 200 204 206 208 213 223 223 199 196 197 174 168 186 200 202 204 221 230 210 208 210 197 198 204 200 202 210 212 214 217 214 211 212 210
328 326 326 326 324 325 325 316 311 321 312 301 282 292 309 317 315 300 292 287 275 181 161 189 200 170 151 182 200 247 268 255 242 236 220 218 212 202 204 202 212 219 210 202 205 219 206 174 183 195 189 195 201 202 202 201 209 209 196 207 219 193 189 189 175 176 199 209 197 199 222 238 211 211 209 197 197 200 200 206 209 208 206 209 211 209 208 208
326 324 325 325 322 323 321 310 317 314 299 291 289 297 318 326 311 294 283 269 256 223 142 182 183 163 191 195 190 233 268 323 299 224 207 216 213 210 218 202 201 219 212 199 202 217 203 182 187 199 195 197 204 205 197 195 208 208 175 186 200 196 194 188 182 193 210 212 197 194 213 240 229 212 199 194 198 200 202 206 206 205 204 207 211 210 207 206
325 324 323 321 317 313 299 290 297 284 268 292 304 280 313 321 282 264 280 282 275 52 183 155 119 164 219 204 197 225 284 311 292 206 186 204 208 204 219 212 204 207 206 204 201 199 203 200 194 196 198 197 201 201 189 190 205 191 156 174 189 195 200 194 193 206 208 209 206 197 205 229 238 215 191 191 198 204 205 202 200 201 204 209 212 210 207 205
326 324 322 319 314 306 288 274 269 259 262 276 267 274 302 286 253 246 260 282 294 148 331 156 159 196 224 231 218 226 261 271 260 162 169 194 208 216 228 220 212 206 204 210 203 179 195 211 203 195 200 197 197 199 185 188 198 171 155 165 169 178 192 197 202 206 204 212 218 206 200 214 235 215 191 193 201 207 205 197 197 200 205 211 209 207 206 203
326 324 322 320 314 307 289 257 250 255 259 255 255 269 273 240 242 262 254 267 297 353 64 179 194 330 293 273 250 226 239 248 241 206 180 186 202 217 234 222 215 207 202 209 210 194 182 204 203 200 208 198 190 191 181 186 193 170 161 163 155 165 180 189 207 207 202 219 225 214 201 207 231 217 198 203 206 205 199 190 194 199 205 210 207 205 203 201
326 324 323 319 307 285 259 262 253 252 245 240 239 232 237 236 240 266 269 243 267 289 271 183 4 348 302 283 278 243 236 240 222 203 190 183 191 199 207 204 204 202 197 203 211 212 196 195 194 197 210 199 175 176 173 183 191 180 174 171 159 164 171 177 196 204 209 223 225 217 205 207 226 224 205 205 204 199 194 192 194 197 204 206 204 203 199 198
327 326 327 320 290 222 212 284 54 129 198 201 211 215 236 254 242 251 284 276 248 312 4 16 318 292 276 282 280 259 251 237 210 205 195 186 187 192 201 195 183 189 193 191 196 200 198 193 186 183 198 198 179 171 171 181 187 186 188 184 171 169 171 184 188 194 213 224 219 212 207 210 226 229 219 205 193 191 191 197 198 198 202 202 200 199 195 196
329 331 340 338 278 213 215 225 150 128 111 169 211 232 251 267 269 281 317 315 310 350 343 259 281 283 277 281 273 247 238 223 204 205 195 190 192 191 198 200 192 196 195 184 187 190 189 188 185 182 183 196 197 178 170 180 182 187 193 188 185 178 172 188 189 192 211 199 149 203 207 219 232 228 225 213 189 188 192 198 204 205 204 200 197 195 191 194
334 346 348 326 269 221 215 215 200 177 59 194 207 225 242 260 283 312 325 315 314 321 312 303 302 297 283 269 267 239 222 210 198 201 192 190 197 192 193 197 197 205 201 185 188 188 189 185 186 191 179 183 200 196 177 178 180 189 197 194 198 192 177 190 191 194 206 185 159 186 203 224 229 221 225 211 190 189 193 196 205 208 206 200 194 191 190 193
354 21 337 334 316 239 209 210 211 212 217 197 210 228 240 265 294 321 319 307 311 311 308 309 303 295 282 246 245 241 230 212 196 197 192 191 194 189 191 187 191 207 202 184 184 187 198 190 175 190 189 178 193 202 183 178 181 189 196 199 206 201 182 182 184 194 213 190 172 185 206 223 207 75 121 203 194 190 189 192 197 195 194 193 189 189 190 193
8 354 313 12 16 186 191 213 206 203 211 222 241 242 258 286 298 319 332 302 306 307 307 310 305 297 307 256 175 189 182 202 202 193 189 198 197 189 192 182 184 206 209 183 175 184 198 178 161 181 195 185 191 197 186 186 182 180 195 202 202 206 201 179 125 59 198 208 190 192 212 220 211 160 164 188 198 192 184 186 192 190 185 183 184 188 191 192
347 325 319 20 12 56 179 208 189 191 212 223 246 267 294 300 286 280 281 279 292 300 305 314 346 351 319 328 116 146 160 183 203 193 183 197 196 188 191 178 177 203 224 208 192 194 196 163 159 181 185 183 192 192 190 204 202 183 193 193 188 209 221 202 184 163 191 218 205 197 214 219 221 206 168 181 196 191 187 190 192 193 189 187 190 191 192 191
325 298 303 19 8 16 171 180 179 190 212 211 245 268 283 290 292 281 262 274 290 292 288 295 343 67 310 319 43 130 175 187 194 190 179 185 184 183 188 177 177 197 215 232 215 198 200 176 162 185 183 175 189 190 188 211 223 216 201 185 178 198 202 193 199 191 196 216 217 210 219 224 223 205 166 184 195 189 190 193 195 196 194 196 199 195 192 185
310 259 288 25 14 146 157 168 175 191 219 231 256 272 282 291 301 294 272 279 286 277 267 274 258 185 263 319 353 211 202 200 194 183 173 180 172 184 193 183 181 194 200 219 213 181 202 203 159 179 182 170 183 196 187 193 210 235 223 197 193 204 198 195 206 204 199 210 219 219 220 224 224 209 182 187 191 189 192 195 201 203 199 202 203 196 187 181
300 245 67 36 15 156 154 170 179 200 229 253 272 280 292 298 303 300 284 278 270 256 268 280 271 261 283 313 318 277 230 214 204 186 172 183 165 175 196 189 181 189 193 215 222 173 197 218 164 170 179 174 182 200 195 183 184 204 210 195 192 201 203 202 209 215 215 212 212 217 226 228 211 201 203 198 188 190 195 198 204 206 205 206 203 191 182 181
283 267 72 41 42 156 156 177 198 224 243 268 284 283 292 298 299 301 298 274 242 237 261 280 278 289 300 298 298 292 261 214 197 188 175 187 190 185 192 192 187 181 179 202 212 185 197 214 177 162 177 187 187 193 201 196 187 193 200 195 194 195 196 200 204 208 217 226 220 217 234 236 166 175 204 206 203 203 202 204 209 210 210 206 195 186 183 181
285 335 57 40 154 168 172 213 227 230 243 273 293 292 296 297 290 300 312 293 242 233 238 257 259 270 287 303 327 303 259 208 184 194 189 187 208 207 175 186 193 181 177 196 187 174 222 224 180 161 178 193 180 184 205 208 195 198 207 205 201 199 201 206 200 193 204 226 235 230 234 211 122 162 203 202 204 204 194 207 214 210 207 196 181 180 180 176
318 357 65 53 170 183 210 282 264 271 276 296 310 304 298 294 284 299 317 316 281 240 226 245 251 268 327 15 322 290 234 206 196 195 186 180 191 178 160 181 194 189 186 197 172 162 229 222 179 158 172 185 167 176 206 214 204 203 207 209 209 206 206 215 217 200 203 213 212 214 228 194 121 147 223 210 193 169 111 157 187 173 169 172 172 172 170 169
321 285 137 70 169 194 248 313 306 314 312 315 322 319 309 292 278 292 312 321 319 297 284 285 257 276 356 354 293 280 258 234 217 200 199 189 167 136 155 184 195 196 193 188 166 169 199 208 181 162 166 174 169 178 197 206 208 207 205 208 213 210 205 213 227 222 214 215 212 215 232 212 134 129 151 140 144 145 136 169 180 177 170 170 173 171 169 169
299 247 170 139 172 202 257 302 302 306 310 316 320 323 327 319 294 292 297 304 304 289 293 298 286 292 294 277 275 276 270 250 232 230 223 206 162 125 170 191 197 204 198 179 173 184 204 215 194 177 172 176 184 186 187 196 202 205 206 205 209 212 207 205 213 216 212 214 215 219 230 216 164 157 166 169 164 157 150 159 174 188 184 179 175 173 173 172
309 313 329 155 170 204 248 278 293 290 302 315 318 323 330 329 325 316 291 287 264 240 278 287 295 300 269 260 291 286 259 232 228 242 225 203 178 148 181 194 202 210 199 178 194 213 232 239 233 231 215 195 191 182 169 182 193 200 205 204 204 209 210 206 208 215 215 215 219 222 225 227 213 197 192 189 189 183 162 159 171 181 182 183 178 173 173 173
305 338 357 352 261 221 239 266 300 296 300 313 316 313 317 320 329 338 304 288 167 170 249 279 281 289 283 310 330 304 268 229 224 241 271 244 189 160 182 195 205 212 202 192 206 218 242 236 238 264 273 256 208 172 165 184 194 197 201 204 204 206 210 212 215 219 219 223 227 219 218 230 237 236 228 205 168 164 157 164 181 181 178 179 176 173 174 176
346 343 29 354 303 283 320 320 315 309 304 303 284 277 304 320 330 339 326 304 287 190 202 249 237 250 266 280 313 305 290 243 220 248 299 266 209 184 178 183 202 206 202 208 207 209 239 230 221 257 271 275 256 201 189 199 202 201 200 201 202 203 208 213 219 225 226 229 233 218 212 221 236 250 253 249 77 60 106 160 184 180 180 179 175 177 181 182
4 337 25 359 304 289 298 297 300 305 306 307 282 281 313 324 327 332 332 313 306 263 187 226 239 232 256 262 255 273 280 264 159 160 269 278 254 206 175 169 200 200 200 209 202 205 235 217 191 252 262 260 244 227 223 221 217 215 210 206 203 204 207 210 214 221 224 232 243 241 229 222 230 249 258 281 61 11 15 140 186 184 186 184 179 182 186 187
356 332 342 329 300 280 277 285 296 304 319 333 332 334 333 329 331 334 329 307 302 294 185 243 257 199 224 257 252 254 271 303 307 261 265 296 293 216 180 165 193 192 197 208 197 197 222 191 144 246 258 239 228 249 254 233 222 221 218 214 210 208 209 210 211 216 220 226 234 241 248 241 234 248 258 269 72 298 267 196 200 194 189 187 183 185 189 191
346 324 319 312 304 294 291 299 299 300 331 352 341 340 336 330 334 333 324 300 285 281 281 300 305 185 202 233 234 241 256 268 269 267 277 290 290 262 233 245 213 188 192 203 197 189 211 235 198 229 248 221 200 308 264 220 212 219 220 217 212 207 209 212 212 216 220 222 226 231 241 245 243 251 256 253 239 260 251 220 205 197 193 191 188 189 190 192
346 329 327 314 295 287 297 309 300 293 327 347 328 325 322 318 327 332 326 314 286 279 289 307 318 316 263 244 233 238 250 263 268 271 275 273 270 267 260 268 278 228 193 195 200 191 206 231 218 216 247 225 256 330 223 186 196 218 219 215 212 208 208 211 212 218 222 224 226 228 234 244 251 254 254 255 253 251 249 229 206 198 195 193 194 194 192 192
Height
843 842 841 840 839 838 837 836 835 834 833 832 831 829 828 827 826 825 824 823 822 821 820 818 817 816 815 813 811 809 807 804 802 801 800 798 796 796 796 795 795 795 795 795 795 795 793 792 792 792 792 790 789 785 785 784 782 787 794 800 799 795 790 785 786 788 788 793 795 793 791 794 798 797 792 789 791 792 794 795 795 795 793 793 793 794 796 799
843 842 841 840 839 838 837 836 835 834 833 832 830 830 828 827 826 825 824 822 821 820 819 818 817 815 814 812 810 808 806 803 800 797 796 796 795 795 794 794 794 794 794 794 794 793 791 789 789 790 790 788 786 784 785 783 782 787 791 795 792 787 781 775 779 781 785 791 792 790 789 790 792 794 792 795 797 794 796 796 795 797 797 795 794 796 797 799
842 842 840 839 838 837 837 835 835 834 832 831 830 829 828 827 826 824 824 822 821 820 819 818 816 815 813 811 809 807 805 801 796 793 793 794 794 794 794 793 792 793 793 793 793 792 790 788 787 788 788 787 783 783 785 782 782 782 784 790 784 778 775 771 774 778 781 785 789 789 788 789 788 788 791 795 798 796 795 794 794 797 797 796 794 795 797 798
842 841 840 839 838 837 836 835 834 833 832 831 830 829 827 826 825 824 823 822 821 819 818 817 816 815 813 811 809 806 805 797 790 790 793 793 793 793 793 792 791 791 792 792 792 791 790 789 788 786 786 786 781 781 783 779 780 779 779 782 776 773 774 771 773 775 777 781 785 786 788 790 786 785 789 793 799 799 791 787 789 790 791 793 794 793 795 797
842 841 839 838 837 836 835 834 833 832 831 830 829 828 827 826 825 824 822 821 820 819 818 817 815 814 812 811 808 807 804 791 787 792 793 792 792 792 791 791 790 789 790 791 790 790 790 788 787 786 785 783 780 781 780 774 775 777 774 774 771 770 773 771 771 773 775 780 783 785 788 788 783 786 788 790 797 793 784 782 783 783 784 788 790 792 793 795
841 840 839 838 837 836 834 833 832 831 830 829 828 827 826 825 824 823 822 821 820 818 818 816 815 814 811 810 807 807 802 789 788 794 791 791 792 791 791 790 789 789 789 789 789 789 787 786 785 784 782 780 778 778 776 771 773 777 774 772 770 768 771 770 769 772 774 779 784 784 783 781 784 788 784 785 789 783 779 779 780 779 780 784 787 789 792 793
841 839 838 837 836 835 834 833 832 830 830 828 827 826 825 824 823 823 821 820 819 818 817 815 815 813 811 809 806 805 801 791 790 793 790 791 792 790 791 790 789 789 788 788 787 786 784 783 782 779 779 778 774 774 773 770 771 776 774 770 770 768 770 769 767 770 773 777 779 778 779 782 786 786 782 784 782 778 779 779 779 779 779 782 786 788 790 791
840 839 838 837 835 834 833 832 831 830 829 827 827 825 824 823 822 821 820 820 818 817 816 815 814 812 811 809 806 803 797 792 791 791 791 791 791 791 791 789 790 789 788 787 785 784 782 780 778 775 776 773 769 770 769 771 774 775 772 767 767 768 768 767 767 770 772 774 774 776 782 783 781 780 782 783 779 778 779 778 779 779 780 783 786 787 789 790
840 838 837 836 834 833 832 831 830 829 828 827 826 824 823 822 821 820 819 818 817 817 816 815 814 812 811 809 807 802 792 789 791 791 791 790 790 790 790 789 789 788 787 786 784 783 779 777 775 771 772 769 766 767 767 772 774 770 769 767 766 769 767 767 769 770 771 773 774 780 784 780 776 779 783 780 777 778 778 779 779 779 782 785 785 787 788 790
839 838 836 835 834 833 831 830 829 828 827 826 824 823 822 821 820 819 818 817 816 816 815 814 813 812 811 809 808 800 789 789 791 790 790 790 789 788 789 789 788 788 786 785 784 782 777 775 772 769 771 768 765 766 766 770 767 763 767 766 767 769 767 767 769 770 771 772 775 780 784 779 775 782 785 778 777 778 778 780 779 780 783 784 785 785 787 790
839 837 836 834 833 832 830 829 828 827 825 824 823 822 820 819 818 817 817 816 815 814 814 813 812 812 810 808 807 798 788 790 791 790 790 789 788 788 788 787 787 787 785 783 782 781 778 775 771 771 774 769 766 767 764 763 762 763 766 768 770 770 768 769 769 770 771 773 774 777 781 779 777 782 781 775 777 778 779 780 779 780 782 783 785 785 786 788
838 837 835 833 832 831 829 828 826 825 824 823 821 820 819 817 816 816 815 814 813 813 812 812 812 811 809 807 803 794 789 790 790 789 789 787 787 786 786 786 785 785 784 782 780 780 780 777 774 772 771 766 767 769 763 759 762 765 767 772 774 773 773 770 769 769 771 774 771 775 785 782 779 780 774 771 776 778 780 780 779 779 780 781 783 783 784 786
837 836 834 833 831 830 829 827 826 824 823 821 819 818 817 815 814 813 812 812 811 811 811 811 810 809 809 802 793 790 790 790 789 788 787 786 786 785 784 784 783 784 784 782 779 779 780 779 777 772 767 766 766 764 760 758 764 767 768 772 773 777 775 767 767 768 770 772 767 778 792 782 774 773 770 770 774 779 781 780 778 778 779 780 781 782 783 784
837 835 834 832 830 829 827 826 825 823 821 820 818 816 814 813 812 810 810 809 808 809 809 809 809 809 806 796 788 789 789 788 787 787 786 785 784 783 783 782 782 782 782 782 780 779 779 779 778 773 768 766 762 760 762 762 765 769 771 771 770 775 771 761 763 767 771 770 764 778 788 775 766 762 763 769 772 775 779 778 777 777 778 779 780 781 782 783
836 834 833 831 829 828 826 825 823 821 820 818 816 814 812 811 809 807 807 805 805 806 807 808 808 807 802 792 786 787 786 786 786 784 784 784 783 782 780 781 781 781 781 781 780 779 779 779 777 774 769 766 763 764 767 766 766 767 773 775 768 767 763 756 757 761 767 767 765 776 780 771 763 756 760 767 769 773 776 776 775 776 777 778 779 780 781 783
835 833 832 830 829 827 825 823 821 820 819 816 814 812 810 808 806 805 803 802 802 803 805 806 804 806 801 789 785 784 784 784 783 783 783 782 782 781 780 780 779 779 780 779 779 779 778 777 775 771 767 767 766 764 765 769 769 764 766 769 763 761 760 754 751 753 759 765 768 771 771 769 762 759 764 766 768 772 774 774 774 774 775 776 778 779 781 782
834 832 830 829 827 825 824 822 820 819 816 814 812 809 807 806 804 803 801 801 801 802 804 802 802 805 796 785 783 782 780 781 782 782 782 781 781 780 779 778 776 777 778 778 779 777 776 776 773 769 765 764 762 759 765 771 768 761 757 758 754 753 755 753 751 751 753 761 767 766 766 764 759 762 767 766 768 772 773 773 772 772 774 775 776 778 780 781
832 831 829 828 826 824 823 820 819 817 815 813 810 807 805 803 803 802 801 801 801 802 803 801 804 800 784 780 783 779 778 781 781 781 780 779 779 778 778 777 774 774 775 775 776 774 774 772 770 769 766 763 758 755 758 755 751 751 751 753 750 746 749 750 751 751 751 758 764 765 766 763 758 763 767 766 768 770 770 770 770 771 772 774 776 777 779 780
831 830 828 827 825 823 821 819 818 816 814 811 809 806 803 801 801 800 801 800 798 797 793 792 797 788 773 776 781 777 778 779 779 779 778 776 776 776 776 776 774 773 772 772 771 770 769 769 769 768 763 757 750 742 740 736 734 739 741 747 749 746 746 744 744 746 748 757 762 761 763 762 759 763 765 765 766 768 769 768 769 770 771 772 775 776 777 779
830 828 827 825 823 822 820 818 817 815 813 810 809 805 800 799 797 793 796 797 794 791 786 784 787 781 774 776 777 776 777 776 776 775 775 775 774 774 773 774 773 771 768 766 766 764 764 767 766 759 751 744 740 736 734 730 732 734 736 742 744 743 745 741 741 744 744 754 759 755 757 758 757 758 760 762 765 768 769 768 770 769 769 770 772 774 776 777
829 828 826 824 822 820 819 817 816 814 812 810 809 804 800 802 799 795 797 796 791 789 786 782 782 779 777 776 776 777 776 775 773 772 773 773 772 772 770 770 771 769 764 759 759 760 761 763 756 747 741 738 739 740 737 735 737 737 734 738 741 741 743 740 742 744 742 749 754 751 754 756 752 753 755 758 763 766 766 767 768 767 767 769 770 773 774 774
828 827 825 823 821 819 817 816 815 813 811 810 808 805 803 805 804 803 804 798 789 786 783 780 780 778 776 776 776 777 778 775 771 768 769 770 769 769 765 765 768 762 758 756 754 759 763 756 745 740 739 738 741 741 739 740 742 740 735 739 744 740 741 744 743 743 742 747 750 748 751 753 748 748 751 755 759 761 761 762 764 765 766 768 769 771 773 773
827 825 823 822 820 818 816 814 814 812 810 809 807 805 805 805 805 805 805 799 787 780 777 776 776 775 774 773 773 776 777 773 769 762 762 766 765 764 761 761 762 757 755 753 750 755 759 748 738 738 740 740 742 740 740 744 744 741 737 740 743 737 741 749 747 744 742 745 748 746 750 751 746 747 749 752 754 755 758 759 760 762 763 765 766 768 771 773
826 824 822 820 818 817 814 813 812 810 809 808 806 806 805 805 805 804 803 795 782 774 773 772 773 772 771 771 772 774 772 768 765 760 758 761 759 759 759 757 757 755 751 746 745 749 748 739 734 736 739 740 742 740 741 747 748 742 736 736 737 735 738 743 743 745 745 748 748 750 760 757 747 752 754 750 752 754 756 759 760 761 761 762 764 767 769 770
824 823 821 819 817 815 813 812 809 809 809 807 806 806 806 805 804 804 802 791 776 768 769 771 770 769 769 771 772 771 768 765 761 758 757 757 754 755 756 754 753 752 746 742 745 745 740 735 733 735 739 741 744 744 743 746 747 743 739 735 732 732 736 737 740 747 756 759 751 753 772 763 745 750 753 748 753 755 754 757 759 760 760 761 764 765 767 768
823 821 819 818 816 814 812 810 808 810 809 806 806 806 806 805 804 804 801 790 774 762 764 769 768 767 767 769 769 769 768 762 755 755 757 755 752 751 752 752 750 747 740 739 745 740 733 734 737 738 742 745 745 744 740 741 745 746 740 735 733 732 736 738 741 749 757 757 744 746 766 762 743 743 744 743 750 753 753 755 756 756 758 759 760 762 764 766
822 819 818 816 814 813 812 809 809 809 807 805 805 805 806 804 804 804 798 786 771 760 763 766 765 765 765 765 767 768 765 756 751 751 753 754 751 749 751 749 748 745 736 738 747 738 728 735 741 740 742 744 743 741 736 737 745 742 732 734 738 736 738 739 741 747 745 741 740 740 752 758 747 736 734 738 747 750 751 753 753 753 755 756 756 757 759 762
820 818 816 814 813 812 811 809 809 807 806 805 804 805 804 803 803 801 796 787 769 759 761 762 764 766 763 762 764 763 758 753 753 749 748 754 751 749 751 745 743 743 735 739 746 735 728 735 740 738 739 739 737 734 732 736 742 735 729 734 736 736 737 735 739 743 736 740 752 746 746 760 751 730 727 735 743 747 746 747 751 752 753 753 753 754 756 758
818 815 813 812 810 808 808 808 807 805 805 804 804 805 802 803 803 795 794 788 767 756 758 760 764 765 761 760 759 757 755 752 753 749 747 752 750 748 750 743 740 741 736 736 737 732 731 735 734 735 735 733 731 729 729 736 737 730 729 733 732 734 736 735 738 739 738 749 759 745 740 757 752 730 730 738 738 738 737 740 746 747 748 748 748 752 754 755
815 813 811 809 807 806 806 805 805 804 803 803 804 803 802 803 798 791 792 783 762 755 757 758 762 763 761 759 752 750 752 749 748 748 748 749 749 748 746 741 740 740 738 737 734 731 731 730 729 731 730 726 725 726 727 733 732 728 732 734 736 739 737 738 737 734 748 761 752 735 730 746 751 732 725 732 728 725 730 736 740 741 743 744 745 748 750 752
813 810 808 806 805 805 804 803 803 802 802 803 802 802 803 798 790 789 783 768 759 758 754 757 765 766 767 763 753 747 747 745 744 745 747 746 748 749 745 743 743 742 742 742 739 736 733 731 729 729 726 722 725 728 730 731 729 731 734 734 742 748 745 749 747 745 762 763 740 726 725 740 751 731 713 717 718 717 724 729 732 735 737 739 741 743 745 748
810 807 805 804 804 804 803 802 802 802 802 802 802 801 799 793 786 781 766 756 763 764 760 768 772 769 770 767 757 747 743 743 741 742 742 742 744 745 743 741 740 742 743 741 741 741 735 729 728 729 727 724 728 733 735 733 731 734 735 734 746 756 759 764 761 758 762 749 730 721 723 735 738 720 706 708 712 714 717 719 723 727 730 733 735 738 741 743
807 805 804 804 804 803 804 803 803 804 802 802 802 798 796 795 783 768 758 759 766 766 767 774 772 765 767 767 756 744 740 741 739 738 737 738 741 740 737 734 731 733 733 733 738 742 738 729 725 729 730 726 725 729 736 734 731 735 732 733 742 750 765 772 761 757 755 743 733 723 724 736 731 713 704 705 709 710 710 713 716 718 723 727 730 733 737 740
805 804 804 803 803 803 803 803 803 803 802 802 801 799 802 799 779 763 764 768 766 765 766 769 767 763 761 761 752 739 738 739 735 735 735 736 740 738 735 733 729 726 725 729 734 737 741 736 729 729 728 725 723 720 724 725 727 729 721 724 731 732 749 760 750 751 749 739 738 735 736 740 731 715 703 700 706 707 706 709 711 714 717 720 725 729 734 737
804 804 804 803 803 802 802 803 803 802 803 801 799 799 801 792 775 770 775 773 771 772 769 765 764 761 753 750 746 737 737 739 734 734 734 733 736 735 733 732 730 726 724 729 732 730 735 731 722 723 719 719 724 716 712 720 730 726 715 722 729 718 725 740 741 740 737 736 742 743 737 724 715 713 705 703 705 704 706 708 710 715 717 719 724 727 731 734
804 804 804 803 802 802 802 803 802 803 802 800 799 797 790 781 774 777 779 777 778 778 774 764 757 756 751 744 740 736 739 741 735 733 734 732 731 730 729 728 728 727 721 722 727 727 731 726 716 720 719 716 720 715 710 718 725 724 721 724 719 706 711 733 745 740 738 746 745 739 734 720 714 716 709 707 708 704 707 709 711 716 718 721 725 725 728 731
805 804 803 802 802 802 803 803 803 804 802 803 803 794 783 777 775 776 779 779 778 777 778 770 758 759 758 745 736 735 738 740 736 734 735 734 731 729 728 726 725 725 719 718 722 719 722 725 720 723 726 719 714 714 714 712 711 719 724 717 710 710 711 722 743 749 750 755 743 731 734 729 726 724 712 709 711 707 708 709 710 714 717 721 724 723 725 727
806 805 802 802 802 801 802 803 803 804 804 806 805 793 783 780 775 776 781 779 777 778 780 772 763 766 764 747 736 734 736 737 736 735 734 733 732 728 726 727 726 724 720 719 723 717 715 725 725 721 725 722 714 718 725 717 707 712 714 706 711 729 729 726 738 748 753 757 745 731 730 725 721 717 711 712 711 707 707 707 709 712 714 718 719 720 723 726
805 803 801 802 802 801 802 803 803 805 807 806 801 790 781 777 773 775 779 778 779 780 777 770 766 770 767 752 741 737 734 735 735 733 732 732 733 728 723 725 726 724 722 720 720 717 715 722 727 720 718 720 719 722 729 726 717 715 713 706 710 722 726 725 728 731 739 749 746 738 732 723 710 702 703 708 706 704 706 706 706 708 710 713 714 716 720 724
805 800 799 802 802 801 802 803 803 806 806 799 792 786 780 776 772 772 774 776 779 778 774 771 768 768 764 753 745 739 735 736 733 730 730 729 729 729 723 721 723 723 723 722 720 718 717 720 726 721 715 720 725 722 720 721 721 723 720 716 716 716 714 717 720 716 722 734 740 742 739 721 699 693 698 701 699 700 702 703 704 704 705 707 709 712 718 722
803 797 797 801 802 801 802 803 803 804 802 794 789 786 782 778 774 770 768 771 775 774 772 772 770 767 761 752 746 742 738 735 731 728 728 725 724 726 722 718 719 719 722 726 723 720 719 719 722 723 719 721 722 714 709 710 712 717 718 715 716 716 715 723 727 717 713 720 724 732 738 717 690 688 694 694 694 694 693 697 699 699 700 703 706 711 715 719
800 795 797 802 802 801 802 802 800 800 799 793 787 785 781 778 774 768 765 767 770 770 769 770 769 765 759 753 750 746 739 733 730 726 724 721 720 719 718 716 716 716 721 725 721 718 719 717 719 722 720 715 711 707 706 705 705 709 712 709 708 710 713 724 730 721 718 719 712 719 731 714 690 688 691 689 691 691 691 693 695 696 699 702 706 710 714 718
799 797 799 801 801 802 802 797 792 793 793 786 781 779 776 775 773 768 764 765 765 767 768 767 765 761 759 759 757 750 739 733 729 723 719 717 715 713 713 716 716 715 719 722 720 720 722 719 717 719 715 708 705 707 707 704 705 710 711 706 705 706 707 711 713 713 720 724 718 728 736 716 694 691 690 689 691 692 695 697 699 702 704 705 708 711 715 719
802 800 799 800 801 802 802 797 792 792 789 783 780 777 772 771 771 768 766 765 763 764 766 764 761 759 760 764 762 750 741 737 730 722 719 716 712 711 713 715 716 715 717 718 718 721 723 718 715 720 724 722 721 721 719 712 709 710 708 704 703 703 705 709 707 709 721 721 717 731 736 713 695 694 692 692 694 694 696 698 700 704 706 707 710 712 715 719
801 797 797 800 802 802 800 798 798 798 793 790 786 777 769 767 766 764 764 764 762 764 765 763 759 758 760 762 758 748 741 740 734 725 722 719 713 713 716 716 716 714 714 715 715 718 721 717 713 719 727 731 730 725 720 714 710 708 706 705 705 703 705 711 714 719 727 721 714 722 724 706 695 695 694 694 695 696 697 698 699 702 704 705 708 710 714 717
800 792 791 794 797 801 800 797 800 801 797 795 790 778 772 770 763 759 761 761 763 766 766 763 758 757 757 754 753 747 738 734 734 728 723 719 715 714 715 716 716 714 713 716 716 717 719 717 713 714 716 715 712 708 704 705 710 713 710 707 707 706 704 708 717 722 722 719 715 713 711 705 697 692 690 691 693 696 697 699 700 701 703 705 706 709 712 715
800 795 795 797 796 795 795 795 798 800 797 796 792 782 777 773 763 759 758 757 761 768 770 767 764 759 753 750 754 749 736 731 731 730 727 721 715 714 715 715 715 714 715 717 716 717 721 719 714 714 712 704 698 697 698 701 706 709 710 709 708 708 708 711 718 716 712 719 721 708 704 710 702 688 685 687 689 694 696 697 699 700 702 704 706 709 712 714
800 799 802 806 801 792 791 793 797 799 797 795 792 785 780 774 767 763 759 754 757 763 767 768 766 762 755 754 758 749 736 732 731 732 733 726 718 717 717 715 714 714 717 718 714 715 720 718 712 712 712 704 699 700 700 700 701 701 704 706 707 708 710 713 716 712 710 718 718 705 704 710 702 688 683 686 690 693 694 694 695 697 700 702 705 708 712 714
806 804 802 806 805 798 798 799 799 798 792 788 786 781 776 773 768 762 758 756 754 755 762 765 762 762 760 756 755 747 735 733 736 737 736 729 721 718 718 718 716 713 715 717 713 714 718 717 713 713 712 706 701 701 700 701 703 701 699 700 702 704 706 710 713 711 709 713 710 703 705 707 699 688 684 688 692 692 692 694 695 697 700 702 704 707 710 713
817 814 810 811 806 798 797 797 797 794 783 776 775 772 769 768 765 759 755 755 753 750 755 758 756 761 765 759 756 750 737 734 739 737 732 730 726 720 715 715 713 712 716 716 713 715 718 717 714 713 713 708 701 700 701 702 704 704 701 697 697 701 704 707 709 709 710 713 709 706 710 707 695 686 685 689 692 691 693 695 696 697 699 701 704 706 708 711
822 820 818 817 806 792 789 790 792 790 777 770 772 771 767 765 761 758 752 747 748 748 748 747 746 753 760 759 759 756 743 737 737 731 727 728 726 722 718 714 711 713 716 716 714 716 719 718 712 712 716 711 703 705 706 701 702 706 704 698 696 699 703 705 706 707 709 712 712 713 714 706 692 686 687 688 689 692 694 694 696 697 698 699 703 704 706 708
824 820 818 819 808 792 786 784 784 783 775 771 773 772 769 765 759 757 754 746 744 745 742 741 740 743 747 751 752 748 739 733 730 726 724 724 721 720 720 716 714 714 714 714 715 715 716 717 712 712 719 713 704 706 706 704 710 711 701 693 694 696 699 701 702 703 703 705 711 713 708 697 688 686 688 688 689 691 692 692 694 696 697 699 701 702 703 705